Year,Month,Day,Hour,Minute,Value (Times are PST for windspeed in km/hr)
2008,08,31,00,00,0.00
2008,08,31,00,01,0.00
2008,08,31,00,02,0.00
2008,08,31,00,03,0.10
2008,08,31,00,04,0.00
2008,08,31,00,05,0.00
2008,08,31,00,06,0.30
2008,08,31,00,07,0.10
2008,08,31,00,08,0.10
2008,08,31,00,09,0.20
2008,08,31,00,10,0.00
2008,08,31,00,11,0.20
2008,08,31,00,12,0.00
2008,08,31,00,13,0.00
2008,08,31,00,14,0.00
2008,08,31,00,15,0.00
2008,08,31,00,16,0.00
2008,08,31,00,17,0.00
2008,08,31,00,18,0.00
2008,08,31,00,19,0.10
2008,08,31,00,20,0.10
2008,08,31,00,21,0.00
2008,08,31,00,22,0.30
2008,08,31,00,23,0.00
2008,08,31,00,24,0.10
2008,08,31,00,25,0.00
2008,08,31,00,26,0.00
2008,08,31,00,27,0.00
2008,08,31,00,28,0.00
2008,08,31,00,29,0.00
2008,08,31,00,30,0.00
2008,08,31,00,31,0.00
2008,08,31,00,32,0.00
2008,08,31,00,33,0.30
2008,08,31,00,34,2.00
2008,08,31,00,35,0.60
2008,08,31,00,36,1.70
2008,08,31,00,37,1.40
2008,08,31,00,38,1.80
2008,08,31,00,39,2.70
2008,08,31,00,40,2.30
2008,08,31,00,41,3.50
2008,08,31,00,42,1.50
2008,08,31,00,43,1.00
2008,08,31,00,44,1.90
2008,08,31,00,45,1.60
2008,08,31,00,46,2.60
2008,08,31,00,47,2.10
2008,08,31,00,48,1.40
2008,08,31,00,49,3.10
2008,08,31,00,50,1.70
2008,08,31,00,51,2.50
2008,08,31,00,52,5.60
2008,08,31,00,53,2.60
2008,08,31,00,54,2.70
2008,08,31,00,55,2.70
2008,08,31,00,56,2.30
2008,08,31,00,57,1.30
2008,08,31,00,58,0.80
2008,08,31,00,59,1.90
2008,08,31,01,00,1.10
2008,08,31,01,01,2.30
2008,08,31,01,02,2.40
2008,08,31,01,03,2.40
2008,08,31,01,04,2.80
2008,08,31,01,05,2.20
2008,08,31,01,06,1.70
2008,08,31,01,07,1.80
2008,08,31,01,08,3.00
2008,08,31,01,09,4.70
2008,08,31,01,10,1.30
2008,08,31,01,11,2.60
2008,08,31,01,12,3.70
2008,08,31,01,13,2.00
2008,08,31,01,14,1.40
2008,08,31,01,15,2.30
2008,08,31,01,16,2.30
2008,08,31,01,17,1.40
2008,08,31,01,18,3.10
2008,08,31,01,19,1.90
2008,08,31,01,20,2.20
2008,08,31,01,21,3.10
2008,08,31,01,22,4.10
2008,08,31,01,23,1.30
2008,08,31,01,24,2.20
2008,08,31,01,25,1.30
2008,08,31,01,26,0.10
2008,08,31,01,27,0.50
2008,08,31,01,28,0.10
2008,08,31,01,29,0.60
2008,08,31,01,30,0.60
2008,08,31,01,31,0.20
2008,08,31,01,32,0.00
2008,08,31,01,33,0.00
2008,08,31,01,34,0.10
2008,08,31,01,35,0.20
2008,08,31,01,36,0.10
2008,08,31,01,37,0.00
2008,08,31,01,38,0.00
2008,08,31,01,39,0.00
2008,08,31,01,40,0.50
2008,08,31,01,41,0.00
2008,08,31,01,42,0.50
2008,08,31,01,43,0.30
2008,08,31,01,44,0.10
2008,08,31,01,45,0.30
2008,08,31,01,46,0.90
2008,08,31,01,47,0.20
2008,08,31,01,48,0.30
2008,08,31,01,49,0.00
2008,08,31,01,50,0.00
2008,08,31,01,51,0.00
2008,08,31,01,52,0.10
2008,08,31,01,53,0.20
2008,08,31,01,54,0.80
2008,08,31,01,55,0.40
2008,08,31,01,56,0.40
2008,08,31,01,57,0.30
2008,08,31,01,58,0.80
2008,08,31,01,59,1.00
2008,08,31,02,00,0.20
2008,08,31,02,01,0.30
2008,08,31,02,02,0.60
2008,08,31,02,03,0.00
2008,08,31,02,04,0.10
2008,08,31,02,05,0.10
2008,08,31,02,06,0.00
2008,08,31,02,07,0.00
2008,08,31,02,08,0.00
2008,08,31,02,09,0.00
2008,08,31,02,10,0.00
2008,08,31,02,11,0.00
2008,08,31,02,12,0.00
2008,08,31,02,13,0.00
2008,08,31,02,14,0.00
2008,08,31,02,15,0.10
2008,08,31,02,16,0.00
2008,08,31,02,17,0.00
2008,08,31,02,18,0.00
2008,08,31,02,19,0.00
2008,08,31,02,20,0.00
2008,08,31,02,21,0.00
2008,08,31,02,22,0.10
2008,08,31,02,23,0.10
2008,08,31,02,24,0.00
2008,08,31,02,25,0.20
2008,08,31,02,26,0.00
2008,08,31,02,27,0.90
2008,08,31,02,28,1.40
2008,08,31,02,29,2.00
2008,08,31,02,30,1.70
2008,08,31,02,31,1.80
2008,08,31,02,32,1.60
2008,08,31,02,33,2.60
2008,08,31,02,34,2.60
2008,08,31,02,35,1.10
2008,08,31,02,36,1.20
2008,08,31,02,37,1.40
2008,08,31,02,38,0.40
2008,08,31,02,39,0.40
2008,08,31,02,40,0.70
2008,08,31,02,41,1.30
2008,08,31,02,42,0.40
2008,08,31,02,43,0.70
2008,08,31,02,44,0.60
2008,08,31,02,45,2.40
2008,08,31,02,46,1.20
2008,08,31,02,47,0.50
2008,08,31,02,48,2.50
2008,08,31,02,49,1.40
2008,08,31,02,50,4.00
2008,08,31,02,51,0.60
2008,08,31,02,52,1.00
2008,08,31,02,53,1.40
2008,08,31,02,54,2.50
2008,08,31,02,55,5.20
2008,08,31,02,56,2.10
2008,08,31,02,57,2.90
2008,08,31,02,58,2.00
2008,08,31,02,59,3.20
2008,08,31,03,00,3.90
2008,08,31,03,01,2.90
2008,08,31,03,02,4.80
2008,08,31,03,03,2.40
2008,08,31,03,04,3.50
2008,08,31,03,05,1.90
2008,08,31,03,06,1.70
2008,08,31,03,07,3.00
2008,08,31,03,08,1.70
2008,08,31,03,09,2.50
2008,08,31,03,10,2.20
2008,08,31,03,11,2.30
2008,08,31,03,12,0.80
2008,08,31,03,13,0.60
2008,08,31,03,14,1.00
2008,08,31,03,15,0.50
2008,08,31,03,16,1.90
2008,08,31,03,17,0.70
2008,08,31,03,18,3.50
2008,08,31,03,19,1.80
2008,08,31,03,20,4.30
2008,08,31,03,21,1.40
2008,08,31,03,22,3.80
2008,08,31,03,23,0.50
2008,08,31,03,24,4.10
2008,08,31,03,25,3.90
2008,08,31,03,26,1.90
2008,08,31,03,27,2.20
2008,08,31,03,28,1.90
2008,08,31,03,29,0.70
2008,08,31,03,30,1.20
2008,08,31,04,02,0.10
2008,08,31,04,03,0.00
2008,08,31,04,04,0.00
2008,08,31,04,05,0.00
2008,08,31,04,06,0.00
2008,08,31,04,07,0.00
2008,08,31,04,08,0.00
2008,08,31,04,09,0.00
2008,08,31,04,10,0.00
2008,08,31,04,11,0.00
2008,08,31,04,12,0.00
2008,08,31,04,13,0.30
2008,08,31,04,14,0.00
2008,08,31,04,15,0.00
2008,08,31,04,16,0.00
2008,08,31,04,17,0.00
2008,08,31,04,18,0.10
2008,08,31,04,19,0.90
2008,08,31,04,20,0.20
2008,08,31,04,21,1.10
2008,08,31,04,22,1.30
2008,08,31,04,23,0.20
2008,08,31,04,24,1.20
2008,08,31,04,25,0.10
2008,08,31,04,26,0.10
2008,08,31,04,27,0.30
2008,08,31,04,28,1.30
2008,08,31,04,29,0.00
2008,08,31,04,30,0.00
2008,08,31,04,31,0.00
2008,08,31,04,32,0.00
2008,08,31,04,33,0.70
2008,08,31,04,34,1.90
2008,08,31,04,35,1.30
2008,08,31,04,36,0.20
2008,08,31,04,37,0.20
2008,08,31,04,38,0.50
2008,08,31,04,39,0.20
2008,08,31,04,40,0.00
2008,08,31,04,41,0.00
2008,08,31,04,42,0.00
2008,08,31,04,43,0.00
2008,08,31,04,44,0.00
2008,08,31,04,45,0.40
2008,08,31,04,46,1.90
2008,08,31,04,47,0.50
2008,08,31,04,48,1.10
2008,08,31,04,49,0.30
2008,08,31,04,50,0.00
2008,08,31,04,51,0.20
2008,08,31,04,52,0.10
2008,08,31,04,53,1.20
2008,08,31,04,54,0.10
2008,08,31,04,55,0.00
2008,08,31,04,56,0.00
2008,08,31,04,57,0.00
2008,08,31,04,58,0.00
2008,08,31,04,59,0.50
2008,08,31,05,00,0.00
2008,08,31,05,01,0.10
2008,08,31,05,02,0.90
2008,08,31,05,03,0.00
2008,08,31,05,04,0.00
2008,08,31,05,05,0.00
2008,08,31,05,06,0.00
2008,08,31,05,07,0.00
2008,08,31,05,08,0.00
2008,08,31,05,09,0.00
2008,08,31,05,10,0.30
2008,08,31,05,11,0.00
2008,08,31,05,12,0.00
2008,08,31,05,13,0.00
2008,08,31,05,14,0.00
2008,08,31,05,15,0.00
2008,08,31,05,16,0.00
2008,08,31,05,17,0.00
2008,08,31,05,18,0.00
2008,08,31,05,19,0.00
2008,08,31,05,20,0.00
2008,08,31,05,21,0.00
2008,08,31,05,22,0.00
2008,08,31,05,23,0.00
2008,08,31,05,24,0.00
2008,08,31,05,25,0.00
2008,08,31,05,26,0.00
2008,08,31,05,27,0.10
2008,08,31,05,28,0.00
2008,08,31,05,29,0.00
2008,08,31,05,30,0.00
2008,08,31,05,31,0.00
2008,08,31,05,32,0.00
2008,08,31,05,33,0.00
2008,08,31,05,34,0.10
2008,08,31,05,35,0.00
2008,08,31,05,36,0.00
2008,08,31,05,37,0.00
2008,08,31,05,38,0.00
2008,08,31,05,39,0.00
2008,08,31,05,40,0.00
2008,08,31,05,41,0.00
2008,08,31,05,42,0.00
2008,08,31,05,43,0.10
2008,08,31,05,44,0.00
2008,08,31,05,45,0.00
2008,08,31,05,46,0.00
2008,08,31,05,47,0.00
2008,08,31,05,48,0.00
2008,08,31,05,49,0.00
2008,08,31,05,50,0.00
2008,08,31,05,51,0.00
2008,08,31,05,52,0.00
2008,08,31,05,53,0.00
2008,08,31,05,54,0.00
2008,08,31,05,55,0.00
2008,08,31,05,56,0.00
2008,08,31,05,57,0.00
2008,08,31,05,58,0.00
2008,08,31,05,59,0.00
2008,08,31,06,00,0.00
2008,08,31,06,01,0.00
2008,08,31,06,02,0.00
2008,08,31,06,03,0.10
2008,08,31,06,04,0.30
2008,08,31,06,05,0.00
2008,08,31,06,06,0.00
2008,08,31,06,07,0.20
2008,08,31,06,08,1.40
2008,08,31,06,09,0.30
2008,08,31,06,10,0.10
2008,08,31,06,11,0.00
2008,08,31,06,12,0.80
2008,08,31,06,13,0.90
2008,08,31,06,14,0.10
2008,08,31,06,15,0.30
2008,08,31,06,16,0.30
2008,08,31,06,17,0.00
2008,08,31,06,18,0.10
2008,08,31,06,19,0.00
2008,08,31,06,20,0.00
2008,08,31,06,21,0.70
2008,08,31,06,22,0.00
2008,08,31,06,23,0.00
2008,08,31,06,24,0.00
2008,08,31,06,25,0.00
2008,08,31,06,26,0.00
2008,08,31,06,27,0.00
2008,08,31,06,28,0.00
2008,08,31,06,29,0.00
2008,08,31,06,30,0.10
2008,08,31,06,31,0.00
2008,08,31,06,32,0.00
2008,08,31,06,33,0.00
2008,08,31,06,34,0.00
2008,08,31,06,35,0.00
2008,08,31,06,36,0.00
2008,08,31,06,37,0.00
2008,08,31,06,38,0.00
2008,08,31,06,39,0.00
2008,08,31,06,40,0.00
2008,08,31,06,41,0.00
2008,08,31,06,42,0.20
2008,08,31,06,43,0.00
2008,08,31,06,44,0.00
2008,08,31,06,45,0.00
2008,08,31,06,46,0.00
2008,08,31,06,47,0.00
2008,08,31,06,48,0.00
2008,08,31,06,49,0.00
2008,08,31,06,50,0.00
2008,08,31,06,51,0.00
2008,08,31,06,52,0.00
2008,08,31,06,53,0.00
2008,08,31,06,54,0.10
2008,08,31,06,55,0.00
2008,08,31,06,56,0.00
2008,08,31,06,57,0.00
2008,08,31,06,58,0.00
2008,08,31,06,59,0.00
2008,08,31,07,00,0.00
2008,08,31,07,01,0.00
2008,08,31,07,02,0.00
2008,08,31,07,03,0.00
2008,08,31,07,04,0.00
2008,08,31,07,05,0.10
2008,08,31,07,06,0.00
2008,08,31,07,07,0.00
2008,08,31,07,08,0.00
2008,08,31,07,09,0.00
2008,08,31,07,10,0.00
2008,08,31,07,11,0.00
2008,08,31,07,12,1.40
2008,08,31,07,13,0.20
2008,08,31,07,14,1.20
2008,08,31,07,15,0.60
2008,08,31,07,16,0.10
2008,08,31,07,17,0.00
2008,08,31,07,18,0.00
2008,08,31,07,19,0.00
2008,08,31,07,20,0.00
2008,08,31,07,21,0.00
2008,08,31,07,22,0.00
2008,08,31,07,23,0.00
2008,08,31,07,24,0.00
2008,08,31,07,25,0.00
2008,08,31,07,26,0.00
2008,08,31,07,27,0.00
2008,08,31,07,28,0.00
2008,08,31,07,29,0.00
2008,08,31,07,30,0.00
2008,08,31,07,31,0.00
2008,08,31,07,32,0.00
2008,08,31,07,33,0.00
2008,08,31,07,34,0.00
2008,08,31,07,35,0.30
2008,08,31,07,36,0.50
2008,08,31,07,37,0.00
2008,08,31,07,38,0.00
2008,08,31,07,39,0.00
2008,08,31,07,40,0.10
2008,08,31,07,41,0.50
2008,08,31,07,42,0.00
2008,08,31,07,43,0.00
2008,08,31,07,44,0.20
2008,08,31,07,45,0.30
2008,08,31,07,46,0.00
2008,08,31,07,47,0.00
2008,08,31,07,48,0.00
2008,08,31,07,49,0.00
2008,08,31,07,50,0.90
2008,08,31,07,51,0.30
2008,08,31,07,52,0.00
2008,08,31,07,53,0.90
2008,08,31,07,54,0.20
2008,08,31,07,55,0.00
2008,08,31,07,56,0.00
2008,08,31,07,57,0.00
2008,08,31,07,58,0.00
2008,08,31,07,59,0.10
2008,08,31,08,00,0.20
2008,08,31,08,01,0.00
2008,08,31,08,02,0.00
2008,08,31,08,03,0.90
2008,08,31,08,04,0.20
2008,08,31,08,05,0.60
2008,08,31,08,06,0.10
2008,08,31,08,07,1.30
2008,08,31,08,08,0.40
2008,08,31,08,09,0.30
2008,08,31,08,10,1.20
2008,08,31,08,11,1.90
2008,08,31,08,12,1.50
2008,08,31,08,13,1.40
2008,08,31,08,14,4.10
2008,08,31,08,15,1.80
2008,08,31,08,16,0.30
2008,08,31,08,17,0.30
2008,08,31,08,18,1.10
2008,08,31,08,19,1.50
2008,08,31,08,20,2.10
2008,08,31,08,21,0.90
2008,08,31,08,22,1.90
2008,08,31,08,23,2.30
2008,08,31,08,24,2.60
2008,08,31,08,25,2.30
2008,08,31,08,26,2.60
2008,08,31,08,27,1.80
2008,08,31,08,28,0.10
2008,08,31,08,29,0.50
2008,08,31,08,30,0.00
2008,08,31,08,31,0.30
2008,08,31,08,32,0.00
2008,08,31,08,33,0.30
2008,08,31,08,34,0.10
2008,08,31,08,35,0.30
2008,08,31,08,36,0.30
2008,08,31,08,37,0.10
2008,08,31,08,38,0.30
2008,08,31,08,39,0.20
2008,08,31,08,40,0.00
2008,08,31,08,41,0.20
2008,08,31,08,42,1.90
2008,08,31,08,43,4.50
2008,08,31,08,44,1.30
2008,08,31,08,45,0.90
2008,08,31,08,46,0.80
2008,08,31,08,47,1.50
2008,08,31,08,48,3.10
2008,08,31,08,49,1.40
2008,08,31,08,50,3.60
2008,08,31,08,51,0.80
2008,08,31,08,52,3.00
2008,08,31,08,53,6.10
2008,08,31,08,54,3.70
2008,08,31,08,55,3.00
2008,08,31,08,56,2.70
2008,08,31,08,57,1.60
2008,08,31,08,58,1.30
2008,08,31,08,59,0.90
2008,08,31,09,00,2.70
2008,08,31,09,01,2.00
2008,08,31,09,02,4.80
2008,08,31,09,03,5.30
2008,08,31,09,04,1.40
2008,08,31,09,05,2.80
2008,08,31,09,06,1.80
2008,08,31,09,07,2.10
2008,08,31,09,08,3.10
2008,08,31,09,09,1.40
2008,08,31,09,10,1.80
2008,08,31,09,11,2.30
2008,08,31,09,12,1.40
2008,08,31,09,13,1.10
2008,08,31,09,14,0.20
2008,08,31,09,15,0.10
2008,08,31,09,16,3.00
2008,08,31,09,17,0.80
2008,08,31,09,18,1.10
2008,08,31,09,19,4.20
2008,08,31,09,20,1.10
2008,08,31,09,21,2.60
2008,08,31,09,22,3.70
2008,08,31,09,23,4.20
2008,08,31,09,24,4.60
2008,08,31,09,25,2.80
2008,08,31,09,26,0.90
2008,08,31,09,27,2.40
2008,08,31,09,28,3.50
2008,08,31,09,29,1.40
2008,08,31,09,30,1.40
2008,08,31,09,31,2.00
2008,08,31,09,32,0.60
2008,08,31,09,33,2.30
2008,08,31,09,34,2.10
2008,08,31,09,35,5.50
2008,08,31,09,36,4.40
2008,08,31,09,37,7.00
2008,08,31,09,38,8.00
2008,08,31,09,39,5.90
2008,08,31,09,40,6.40
2008,08,31,09,41,3.50
2008,08,31,09,42,6.00
2008,08,31,09,43,8.50
2008,08,31,09,44,5.50
2008,08,31,09,45,2.20
2008,08,31,09,46,0.30
2008,08,31,09,47,0.90
2008,08,31,09,48,0.60
2008,08,31,09,49,3.40
2008,08,31,09,50,6.40
2008,08,31,09,51,4.00
2008,08,31,09,52,7.50
2008,08,31,09,53,5.00
2008,08,31,09,54,4.20
2008,08,31,09,55,9.30
2008,08,31,09,56,3.60
2008,08,31,09,57,4.40
2008,08,31,09,58,7.10
2008,08,31,09,59,5.60
2008,08,31,10,00,0.90
2008,08,31,10,01,9.60
2008,08,31,10,02,8.80
2008,08,31,10,03,9.00
2008,08,31,10,04,6.40
2008,08,31,10,05,7.50
2008,08,31,10,06,4.50
2008,08,31,10,07,4.70
2008,08,31,10,08,6.00
2008,08,31,10,09,10.10
2008,08,31,10,10,5.30
2008,08,31,10,11,8.10
2008,08,31,10,12,9.70
2008,08,31,10,13,9.20
2008,08,31,10,14,11.80
2008,08,31,10,15,1.90
2008,08,31,10,16,8.30
2008,08,31,10,17,7.60
2008,08,31,10,18,3.80
2008,08,31,10,19,1.60
2008,08,31,10,20,8.30
2008,08,31,10,21,8.90
2008,08,31,10,22,9.00
2008,08,31,10,23,5.90
2008,08,31,10,24,5.90
2008,08,31,10,25,11.00
2008,08,31,10,26,8.70
2008,08,31,10,27,5.00
2008,08,31,10,28,3.50
2008,08,31,10,29,8.20
2008,08,31,10,30,4.90
2008,08,31,10,31,8.50
2008,08,31,10,32,10.50
2008,08,31,10,33,12.50
2008,08,31,10,34,8.90
2008,08,31,10,35,4.70
2008,08,31,10,36,10.70
2008,08,31,10,37,5.80
2008,08,31,10,38,12.80
2008,08,31,10,39,9.80
2008,08,31,10,40,10.00
2008,08,31,10,41,15.40
2008,08,31,10,42,6.50
2008,08,31,10,43,17.50
2008,08,31,10,44,6.40
2008,08,31,10,45,6.60
2008,08,31,10,46,11.40
2008,08,31,10,47,8.30
2008,08,31,10,48,8.10
2008,08,31,10,49,4.10
2008,08,31,10,50,3.10
2008,08,31,10,51,5.70
2008,08,31,10,52,5.30
2008,08,31,10,53,4.60
2008,08,31,10,54,7.10
2008,08,31,10,55,7.50
2008,08,31,10,56,3.60
2008,08,31,10,57,3.60
2008,08,31,10,58,12.00
2008,08,31,10,59,6.70
2008,08,31,11,00,4.50
2008,08,31,11,01,3.00
2008,08,31,11,02,8.30
2008,08,31,11,03,9.70
2008,08,31,11,04,3.50
2008,08,31,11,05,6.50
2008,08,31,11,06,6.50
2008,08,31,11,07,6.40
2008,08,31,11,08,8.00
2008,08,31,11,09,3.50
2008,08,31,11,10,9.80
2008,08,31,11,11,9.20
2008,08,31,11,12,6.20
2008,08,31,11,13,3.80
2008,08,31,11,14,4.70
2008,08,31,11,15,6.30
2008,08,31,11,16,4.20
2008,08,31,11,17,4.70
2008,08,31,11,18,7.40
2008,08,31,11,19,4.40
2008,08,31,11,20,8.60
2008,08,31,11,21,5.80
2008,08,31,11,22,1.90
2008,08,31,11,23,2.80
2008,08,31,11,24,4.80
2008,08,31,11,25,3.60
2008,08,31,11,26,1.90
2008,08,31,11,27,8.00
2008,08,31,11,28,3.80
2008,08,31,11,29,4.20
2008,08,31,11,30,8.00
2008,08,31,11,31,11.00
2008,08,31,11,32,9.60
2008,08,31,11,33,5.10
2008,08,31,11,34,7.30
2008,08,31,11,35,7.50
2008,08,31,11,36,10.30
2008,08,31,11,37,7.30
2008,08,31,11,38,10.00
2008,08,31,11,39,9.30
2008,08,31,11,40,6.80
2008,08,31,11,41,7.60
2008,08,31,11,42,10.50
2008,08,31,11,43,6.30
2008,08,31,11,44,7.60
2008,08,31,11,45,6.40
2008,08,31,11,46,11.60
2008,08,31,11,47,8.20
2008,08,31,11,48,7.50
2008,08,31,11,49,7.80
2008,08,31,11,50,7.60
2008,08,31,11,51,12.90
2008,08,31,11,52,5.30
2008,08,31,11,53,3.70
2008,08,31,11,54,11.70
2008,08,31,11,55,11.60
2008,08,31,11,56,11.00
2008,08,31,11,57,8.90
2008,08,31,11,58,9.50
2008,08,31,11,59,12.20
2008,08,31,12,00,8.50
2008,08,31,12,01,13.70
2008,08,31,12,02,15.20
2008,08,31,12,03,8.00
2008,08,31,12,04,7.60
2008,08,31,12,05,9.50
2008,08,31,12,06,6.50
2008,08,31,12,07,8.90
2008,08,31,12,08,13.00
2008,08,31,12,09,7.80
2008,08,31,12,10,9.80
2008,08,31,12,11,14.80
2008,08,31,12,12,14.10
2008,08,31,12,13,10.20
2008,08,31,12,14,7.70
2008,08,31,12,15,3.90
2008,08,31,12,16,5.80
2008,08,31,12,17,10.00
2008,08,31,12,18,8.00
2008,08,31,12,19,8.20
2008,08,31,12,20,5.10
2008,08,31,12,21,7.80
2008,08,31,12,22,10.00
2008,08,31,12,23,4.90
2008,08,31,12,24,1.90
2008,08,31,12,25,1.40
2008,08,31,12,26,6.60
2008,08,31,12,27,4.70
2008,08,31,12,28,6.30
2008,08,31,12,29,6.90
2008,08,31,12,30,5.20
2008,08,31,12,31,5.30
2008,08,31,12,32,7.20
2008,08,31,12,33,4.20
2008,08,31,12,34,4.90
2008,08,31,12,35,2.50
2008,08,31,12,36,1.40
2008,08,31,12,37,1.40
2008,08,31,12,38,2.30
2008,08,31,12,39,1.90
2008,08,31,12,40,1.20
2008,08,31,12,41,1.70
2008,08,31,12,42,2.10
2008,08,31,12,43,0.20
2008,08,31,12,44,2.70
2008,08,31,12,45,2.30
2008,08,31,12,46,4.20
2008,08,31,12,47,4.10
2008,08,31,12,48,6.30
2008,08,31,12,49,7.30
2008,08,31,12,50,4.10
2008,08,31,12,51,8.70
2008,08,31,12,52,5.80
2008,08,31,12,53,7.10
2008,08,31,12,54,8.30
2008,08,31,12,55,10.20
2008,08,31,12,56,3.80
2008,08,31,12,57,6.90
2008,08,31,12,58,8.90
2008,08,31,12,59,7.60
2008,08,31,13,00,6.30
2008,08,31,13,01,7.80
2008,08,31,13,02,2.80
2008,08,31,13,03,4.30
2008,08,31,13,04,7.20
2008,08,31,13,05,5.30
2008,08,31,13,06,8.60
2008,08,31,13,07,10.30
2008,08,31,13,08,7.00
2008,08,31,13,09,5.30
2008,08,31,13,10,3.80
2008,08,31,13,11,6.40
2008,08,31,13,12,6.60
2008,08,31,13,13,6.70
2008,08,31,13,14,7.80
2008,08,31,13,15,5.50
2008,08,31,13,16,2.00
2008,08,31,13,17,2.40
2008,08,31,13,18,4.30
2008,08,31,13,19,6.30
2008,08,31,13,20,4.40
2008,08,31,13,21,4.40
2008,08,31,13,22,9.10
2008,08,31,13,23,6.40
2008,08,31,13,24,5.10
2008,08,31,13,25,3.20
2008,08,31,13,26,7.00
2008,08,31,13,27,6.90
2008,08,31,13,28,7.30
2008,08,31,13,29,4.80
2008,08,31,13,30,4.20
2008,08,31,13,31,4.50
2008,08,31,13,32,6.80
2008,08,31,13,33,6.00
2008,08,31,13,34,3.00
2008,08,31,13,35,3.90
2008,08,31,13,36,4.30
2008,08,31,13,37,2.70
2008,08,31,13,38,1.60
2008,08,31,13,39,3.50
2008,08,31,13,40,6.90
2008,08,31,13,41,6.10
2008,08,31,13,42,7.30
2008,08,31,13,43,4.10
2008,08,31,13,44,3.60
2008,08,31,13,45,1.40
2008,08,31,13,46,5.30
2008,08,31,13,47,4.70
2008,08,31,13,48,7.40
2008,08,31,13,49,3.20
2008,08,31,13,50,3.20
2008,08,31,13,51,6.70
2008,08,31,13,52,5.80
2008,08,31,13,53,1.10
2008,08,31,13,54,2.70
2008,08,31,13,55,3.50
2008,08,31,13,56,3.80
2008,08,31,13,57,4.60
2008,08,31,13,58,6.50
2008,08,31,13,59,7.20
2008,08,31,14,00,6.90
2008,08,31,14,01,7.00
2008,08,31,14,02,6.00
2008,08,31,14,03,6.60
2008,08,31,14,04,5.70
2008,08,31,14,05,6.90
2008,08,31,14,06,5.20
2008,08,31,14,07,4.50
2008,08,31,14,08,2.70
2008,08,31,14,09,3.80
2008,08,31,14,10,4.40
2008,08,31,14,11,3.90
2008,08,31,14,12,5.80
2008,08,31,14,13,5.00
2008,08,31,14,14,5.20
2008,08,31,14,15,3.30
2008,08,31,14,16,3.40
2008,08,31,14,17,5.80
2008,08,31,14,18,3.50
2008,08,31,14,19,7.00
2008,08,31,14,20,3.50
2008,08,31,14,21,6.60
2008,08,31,14,22,4.10
2008,08,31,14,23,4.00
2008,08,31,14,24,2.20
2008,08,31,14,25,3.00
2008,08,31,14,26,3.90
2008,08,31,14,27,4.90
2008,08,31,14,28,4.50
2008,08,31,14,29,5.40
2008,08,31,14,30,7.00
2008,08,31,14,31,4.10
2008,08,31,14,32,5.80
2008,08,31,14,33,4.70
2008,08,31,14,34,4.90
2008,08,31,14,35,3.50
2008,08,31,14,36,5.90
2008,08,31,14,37,5.30
2008,08,31,14,38,6.10
2008,08,31,14,39,0.80
2008,08,31,14,40,4.30
2008,08,31,14,41,6.20
2008,08,31,14,42,3.90
2008,08,31,14,43,4.50
2008,08,31,14,44,6.40
2008,08,31,14,45,5.90
2008,08,31,14,46,7.20
2008,08,31,14,47,4.40
2008,08,31,14,48,3.80
2008,08,31,14,49,6.80
2008,08,31,14,50,1.50
2008,08,31,14,51,2.90
2008,08,31,14,52,7.00
2008,08,31,14,53,4.20
2008,08,31,14,54,3.40
2008,08,31,14,55,2.50
2008,08,31,14,56,6.00
2008,08,31,14,57,5.70
2008,08,31,14,58,4.10
2008,08,31,14,59,5.60
2008,08,31,15,00,5.20
2008,08,31,15,01,3.10
2008,08,31,15,02,1.90
2008,08,31,15,03,3.20
2008,08,31,15,04,5.70
2008,08,31,15,05,1.40
2008,08,31,15,06,1.40
2008,08,31,15,07,5.80
2008,08,31,15,08,6.70
2008,08,31,15,09,7.10
2008,08,31,15,10,3.10
2008,08,31,15,11,0.30
2008,08,31,15,12,2.10
2008,08,31,15,13,5.30
2008,08,31,15,14,4.20
2008,08,31,15,15,3.40
2008,08,31,15,16,5.30
2008,08,31,15,17,4.10
2008,08,31,15,18,5.60
2008,08,31,15,19,8.20
2008,08,31,15,20,8.90
2008,08,31,15,21,7.10
2008,08,31,15,22,3.80
2008,08,31,15,23,4.40
2008,08,31,15,24,5.80
2008,08,31,15,25,7.10
2008,08,31,15,26,9.20
2008,08,31,15,27,4.70
2008,08,31,15,28,6.00
2008,08,31,15,29,5.90
2008,08,31,15,30,3.20
2008,08,31,15,31,1.90
2008,08,31,15,32,4.10
2008,08,31,15,33,5.70
2008,08,31,15,34,5.10
2008,08,31,15,35,5.00
2008,08,31,15,36,5.10
2008,08,31,15,37,2.80
2008,08,31,15,38,2.30
2008,08,31,15,39,5.10
2008,08,31,15,40,1.10
2008,08,31,15,41,0.10
2008,08,31,15,42,2.50
2008,08,31,15,43,3.40
2008,08,31,15,44,1.90
2008,08,31,15,45,4.00
2008,08,31,15,46,7.20
2008,08,31,15,47,5.80
2008,08,31,15,48,6.20
2008,08,31,15,49,4.10
2008,08,31,15,50,3.80
2008,08,31,15,51,7.00
2008,08,31,15,52,3.50
2008,08,31,15,53,6.10
2008,08,31,15,54,2.60
2008,08,31,15,55,4.40
2008,08,31,15,56,1.70
2008,08,31,15,57,3.50
2008,08,31,15,58,1.70
2008,08,31,15,59,1.40
2008,08,31,16,00,2.30
2008,08,31,16,01,6.80
2008,08,31,16,02,4.90
2008,08,31,16,03,2.80
2008,08,31,16,04,4.70
2008,08,31,16,05,6.00
2008,08,31,16,06,5.30
2008,08,31,16,07,3.50
2008,08,31,16,08,1.00
2008,08,31,16,09,1.10
2008,08,31,16,10,5.30
2008,08,31,16,11,3.70
2008,08,31,16,12,4.70
2008,08,31,16,13,2.30
2008,08,31,16,14,6.40
2008,08,31,16,15,3.80
2008,08,31,16,16,6.20
2008,08,31,16,17,5.20
2008,08,31,16,18,5.10
2008,08,31,16,19,4.00
2008,08,31,16,20,2.10
2008,08,31,16,21,0.80
2008,08,31,16,22,5.00
2008,08,31,16,23,3.70
2008,08,31,16,24,4.50
2008,08,31,16,25,6.70
2008,08,31,16,26,4.20
2008,08,31,16,27,6.40
2008,08,31,16,28,5.30
2008,08,31,16,29,3.60
2008,08,31,16,30,1.60
2008,08,31,16,31,2.60
2008,08,31,16,32,8.40
2008,08,31,16,33,5.40
2008,08,31,16,34,6.40
2008,08,31,16,35,7.00
2008,08,31,16,36,8.20
2008,08,31,16,37,8.40
2008,08,31,16,38,6.90
2008,08,31,16,39,8.00
2008,08,31,16,40,6.30
2008,08,31,16,41,7.30
2008,08,31,16,42,7.50
2008,08,31,16,43,5.90
2008,08,31,16,44,5.60
2008,08,31,16,45,4.90
2008,08,31,16,46,3.80
2008,08,31,16,47,5.80
2008,08,31,16,48,4.70
2008,08,31,16,49,8.60
2008,08,31,16,50,5.60
2008,08,31,16,51,6.30
2008,08,31,16,52,3.90
2008,08,31,16,53,6.00
2008,08,31,16,54,4.70
2008,08,31,16,55,5.80
2008,08,31,16,56,5.40
2008,08,31,16,57,5.80
2008,08,31,16,58,5.40
2008,08,31,16,59,2.90
2008,08,31,17,00,7.50
2008,08,31,17,01,4.30
2008,08,31,17,02,5.20
2008,08,31,17,03,4.50
2008,08,31,17,04,6.60
2008,08,31,17,05,3.30
2008,08,31,17,06,4.20
2008,08,31,17,07,6.00
2008,08,31,17,08,3.00
2008,08,31,17,09,5.60
2008,08,31,17,10,5.70
2008,08,31,17,11,1.60
2008,08,31,17,12,2.00
2008,08,31,17,13,2.70
2008,08,31,17,14,3.50
2008,08,31,17,15,3.50
2008,08,31,17,16,3.60
2008,08,31,17,17,5.70
2008,08,31,17,18,3.70
2008,08,31,17,19,1.50
2008,08,31,17,20,4.30
2008,08,31,17,21,6.90
2008,08,31,17,22,3.90
2008,08,31,17,23,4.70
2008,08,31,17,24,3.90
2008,08,31,17,25,7.10
2008,08,31,17,26,4.30
2008,08,31,17,27,4.00
2008,08,31,17,28,7.80
2008,08,31,17,29,8.60
2008,08,31,17,30,6.70
2008,08,31,17,31,6.60
2008,08,31,17,32,3.00
2008,08,31,17,33,3.00
2008,08,31,17,34,4.20
2008,08,31,17,35,3.90
2008,08,31,17,36,3.20
2008,08,31,17,37,2.40
2008,08,31,17,38,4.60
2008,08,31,17,39,2.10
2008,08,31,17,40,2.10
2008,08,31,17,41,1.70
2008,08,31,17,42,3.60
2008,08,31,17,43,4.90
2008,08,31,17,44,4.80
2008,08,31,17,45,8.80
2008,08,31,17,46,7.10
2008,08,31,17,47,3.90
2008,08,31,17,48,4.10
2008,08,31,17,49,3.70
2008,08,31,17,50,3.90
2008,08,31,17,51,3.50
2008,08,31,17,52,1.60
2008,08,31,17,53,3.00
2008,08,31,17,54,4.40
2008,08,31,17,55,3.90
2008,08,31,17,56,2.50
2008,08,31,17,57,5.70
2008,08,31,17,58,4.50
2008,08,31,17,59,0.60
2008,08,31,18,00,5.20
2008,08,31,18,01,4.70
2008,08,31,18,02,3.40
2008,08,31,18,03,2.90
2008,08,31,18,04,3.90
2008,08,31,18,05,5.80
2008,08,31,18,06,4.70
2008,08,31,18,07,3.50
2008,08,31,18,08,1.50
2008,08,31,18,09,2.50
2008,08,31,18,10,3.90
2008,08,31,18,11,3.40
2008,08,31,18,12,2.90
2008,08,31,18,13,3.10
2008,08,31,18,14,5.00
2008,08,31,18,15,7.50
2008,08,31,18,16,5.70
2008,08,31,18,17,2.60
2008,08,31,18,18,2.10
2008,08,31,18,19,0.80
2008,08,31,18,20,0.10
2008,08,31,18,21,0.30
2008,08,31,18,22,1.70
2008,08,31,18,23,4.30
2008,08,31,18,24,3.50
2008,08,31,18,25,4.80
2008,08,31,18,26,3.70
2008,08,31,18,27,6.00
2008,08,31,18,28,5.70
2008,08,31,18,29,1.60
2008,08,31,18,30,1.60
2008,08,31,18,31,3.70
2008,08,31,18,32,2.90
2008,08,31,18,33,2.90
2008,08,31,18,34,2.30
2008,08,31,18,35,0.70
2008,08,31,18,36,1.20